Weather observations for the past three days for
Newberry County Airport
Imperial (Metric)
Date Time (edt) Wind (mph) Vis. (mi.) Weather Sky Cond. Temperature (ºF) Relative Humidity Wind Chill (°F) Heat Index (°F) Pressure Precipitation (in)
Air Dwpt 6 hour altimeter (in) sea level (mb) 1 hr 3 hr 6 hr
Max. Min.
17 09:35 S 8 10.00 Fair CLR 82.4 71.6 70% 87 30.05 0.0
17 09:15 S 8 10.00 Fair CLR 78.8 73.4 84% 82 30.05 0.0
17 08:35 S 7 10.00 Fair CLR 75.2 73.4 94% 74 30.06 0.0
17 08:15 S 7 10.00 Fair CLR 75.2 73.4 94% 74 30.06 0.0
17 07:55 S 6 10.00 Fair CLR 73.4 73.4 100% 30.06 0.0
17 07:35 S 6 10.00 Fair CLR 73.4 71.6 94% 30.05 0.0
17 07:15 S 5 10.00 Fair CLR 73.4 71.6 94% 30.05 0.0
17 06:55 S 7 10.00 Fair CLR 73.4 71.6 94% 30.04 0.0
17 06:35 S 6 10.00 Fair CLR 73.4 71.6 94% 30.03 0.0
17 06:15 S 6 10.00 Fair CLR 73.4 71.6 94% 30.03 0.0
17 05:55 S 6 10.00 Fair CLR 73.4 71.6 94% 30.02 0.0
17 05:35 S 7 10.00 Fair CLR 73.4 71.6 94% 30.01 0.0
17 05:15 S 7 10.00 Fair CLR 73.4 71.6 94% 30.01 0.0
17 04:55 S 7 10.00 Fair CLR 73.4 71.6 94% 30 0.0
17 04:35 S 6 10.00 Fair CLR 73.4 71.6 94% 29.99 0.0
17 04:15 S 7 10.00 Fair CLR 73.4 71.6 94% 29.99 0.0
17 03:55 S 6 10.00 Fair CLR 73.4 71.6 94% 29.98 0.0
17 03:35 S 7 10.00 Fair CLR 73.4 71.6 94% 29.98 0.0
17 03:15 S 7 10.00 Fair CLR 73.4 71.6 94% 29.97 0.0
17 02:55 S 5 10.00 Fair CLR 73.4 73.4 100% 29.98 0.0
17 02:35 SE 6 10.00 Fair CLR 73.4 73.4 100% 29.98 0.0
17 02:15 SE 5 10.00 Fair CLR 75.2 73.4 94% 74 29.98 0.0
17 01:55 S 3 10.00 Fair CLR 75.2 73.4 94% 74 29.99 0.0
17 01:35 S 6 10.00 Fair CLR 75.2 73.4 94% 74 30 0.0
17 01:15 SE 5 10.00 Fair CLR 75.2 73.4 94% 74 30 0.0
17 00:55 SE 3 10.00 Fair CLR 75.2 71.6 89% 75 30.01 0.0
17 00:35 S 5 10.00 Fair CLR 77 71.6 83% 78 30.02 0.0
17 00:15 S 5 10.00 Fair CLR 77 69.8 79% 79 30.02 0.0
16 23:55 S 3 10.00 Fair CLR 77 69.8 79% 79 30.03 0.0
16 23:35 W 5 10.00 Fair CLR 77 69.8 79% 79 30.04 0.0
16 23:15 S 3 10.00 Fair CLR 78.8 69.8 74% 81 30.04 0.0
16 22:55 S 5 10.00 Fair CLR 78.8 68 70% 81 30.04 0.0
16 22:35 S 8 10.00 Fair CLR 78.8 68 70% 81 30.04 0.0
16 22:15 S 7 10.00 Fair CLR 78.8 68 70% 81 30.04 0.0
16 21:55 S 8 10.00 Fair CLR 80.6 68 66% 83 30.03 0.0
16 21:35 S 9 10.00 Fair CLR 80.6 68 66% 83 30.02 0.0
16 21:15 S 8 10.00 Fair CLR 80.6 68 66% 83 30.02 0.0
16 20:55 S 6 10.00 Fair CLR 82.4 68 62% 85 30.02 0.0
16 20:35 S 5 10.00 Fair CLR 82.4 68 62% 85 30.01 0.0
16 20:15 S 6 10.00 Fair CLR 84.2 68 58% 87 30 0.0
16 19:55 S 13 G 17 10.00 Thunderstorm in Vicinity CLR 86 68 55% 89 30 0.0
16 19:35 S 7 10.00 Fair CLR 87.8 68 52% 91 30 0.0
16 19:15 S 14 G 21 10.00 Thunderstorm CLR 87.8 68 52% 91 29.99 0.0
16 18:55 S 9 G 23 10.00 Partly Cloudy SCT055 91.4 68 46% 96 29.98 0.0
16 18:35 S 12 G 20 10.00 Partly Cloudy SCT055 91.4 68 46% 96 29.97 0.0
16 18:15 S 12 10.00 Partly Cloudy SCT055 SCT110 95 68 41% 100 29.97 0.0
16 17:55 S 10 10.00 Thunderstorm in Vicinity SCT060 SCT110 91.4 68 46% 96 29.97 0.0
16 17:35 S 12 10.00 Partly Cloudy SCT060 95 68 41% 100 29.96 0.0
16 17:15 SW 12 G 16 10.00 Partly Cloudy SCT060 SCT070 95 66.2 39% 98 29.96 0.0
16 16:55 S 10 10.00 Partly Cloudy SCT060 SCT070 95 68 41% 100 29.96 0.0
16 16:35 S 9 10.00 Partly Cloudy SCT060 SCT075 93.2 66.2 41% 96 29.96 0.0
16 16:15 S 8 10.00 Partly Cloudy SCT060 95 66.2 39% 98 29.96 0.0
16 15:55 S 9 G 18 10.00 Partly Cloudy SCT060 95 64.4 36% 97 29.97 0.0
16 15:35 SW 12 10.00 Thunderstorm in Vicinity CLR 95 64.4 36% 97 29.97 0.0
16 15:15 SW 12 G 18 10.00 Thunderstorm in Vicinity CLR 95 62.6 34% 96 29.98 0.0
16 14:55 W 9 G 17 10.00 Thunderstorm in Vicinity CLR 95 66.2 39% 98 29.99 0.0
16 14:35 SW 14 G 18 10.00 Fair CLR 95 64.4 36% 97 30 0.0
16 12:15 SW 13 10.00 Fair CLR 91.4 68 46% 96 30.06 0.0
16 11:55 SW 9 10.00 Fair CLR 89.6 69.8 52% 95 30.06 0.0
16 11:35 SW 10 G 16 10.00 Fair CLR 89.6 69.8 52% 95 30.05 0.0
16 11:15 SW 12 10.00 Fair CLR 89.6 69.8 52% 95 30.05 0.0
16 10:55 S 12 10.00 Fair CLR 87.8 69.8 55% 93 30.04 0.0
16 10:35 S 6 10.00 Fair CLR 86 71.6 62% 92 30.05 0.0
16 09:55 S 6 10.00 Fair CLR 82.4 71.6 70% 87 30.03 0.0
16 09:15 S 6 10.00 Fair CLR 80.6 73.4 79% 85 30.05 0.0
16 07:35 SE 6 10.00 Fair CLR 73.4 71.6 94% 30.03 0.0
16 06:35 Calm 10.00 Fair CLR 73.4 71.6 94% 30.02 0.0
16 06:15 Calm 10.00 Fair CLR 73.4 71.6 94% 30.02 0.0
16 05:35 Calm 10.00 Fair CLR 73.4 71.6 94% 30.02 0.0
16 05:15 SW 3 10.00 Fair CLR 73.4 71.6 94% 30.02 0.0
16 04:55 S 3 10.00 Fair CLR 73.4 71.6 94% 30.02 0.0
16 04:35 SW 6 10.00 Fair CLR 73.4 71.6 94% 30.02 0.0
16 04:15 SW 6 10.00 Fair CLR 73.4 71.6 94% 30 0.0
16 00:35 S 6 10.00 Fair CLR 75.2 73.4 94% 74 30.02 0.0
15 23:55 Calm 10.00 Fair CLR 75.2 73.4 94% 74 30.03 0.0
15 20:15 Calm 10.00 Fair CLR 87.8 66.2 49% 90 29.99 0.0
15 18:15 SE 5 10.00 Fair CLR 95 66.2 39% 98 29.97 0.0
15 16:35 SE 7 10.00 Fair CLR 95 64.4 36% 97 29.97 0.0
15 15:55 SE 9 10.00 Fair CLR 95 64.4 36% 97 29.99 0.0
15 15:35 SW 7 10.00 Fair CLR 96.8 66.2 37% 100 29.99 0.0
15 15:15 SW 3 10.00 Fair CLR 96.8 62.6 32% 98 30.01 0.0
15 14:35 SW 6 10.00 Fair CLR 95 64.4 36% 97 30.02 0.0
15 12:35 Calm 10.00 Fair CLR 87.8 69.8 55% 93 30.08 0.0
15 12:15 Calm 10.00 Fair CLR 87.8 69.8 55% 93 30.08 0.0
15 11:55 Calm 10.00 Fair CLR 86 69.8 59% 91 30.08 0.0
15 11:35 S 5 10.00 Fair CLR 82.4 69.8 66% 86 30.09 0.0
15 11:15 S 3 10.00 Fair CLR 82.4 69.8 66% 86 30.09 0.0
15 10:35 S 5 10.00 Fair CLR 82.4 69.8 66% 86 30.1 0.0
15 09:55 Calm 10.00 Fair CLR 80.6 73.4 79% 85 30.11 0.0
15 07:35 S 3 10.00 Fair CLR 77 75.2 94% 78 30.08 0.0
15 06:55 Calm 10.00 Fair CLR 73.4 73.4 100% 30.07 0.0
15 06:15 Calm 10.00 Fair CLR 75.2 73.4 94% 74 30.06 0.0
15 05:35 S 5 10.00 Fair CLR 75.2 73.4 94% 74 30.06 0.0
15 04:55 S 3 10.00 Fair CLR 77 75.2 94% 78 30.05 0.0
15 04:35 S 3 10.00 Fair CLR 77 75.2 94% 78 30.05 0.0
15 04:15 S 3 10.00 Fair CLR 77 73.4 89% 78 30.05 0.0
15 03:55 Calm 10.00 Fair CLR 77 73.4 89% 78 30.04 0.0
15 03:35 S 3 10.00 Fair CLR 78.8 71.6 79% 82 30.04 0.0
15 03:15 S 6 10.00 Fair CLR 78.8 71.6 79% 82 30.04 0.0
15 02:55 S 6 10.00 Fair CLR 78.8 71.6 79% 82 30.05 0.0
14 23:55 Calm 10.00 Fair CLR 78.8 69.8 74% 81 30.09 0.0
14 18:55 S 5 10.00 Fair CLR 95 64.4 36% 97 30.06 0.0
14 18:35 SE 3 10.00 Fair CLR 95 64.4 36% 97 30.06 0.0
14 18:15 SE 3 10.00 Fair CLR 93.2 64.4 39% 95 30.05 0.0
14 17:55 SE 3 10.00 Fair CLR 95 62.6 34% 96 30.05 0.0
14 17:35 SE 5 10.00 Fair CLR 95 64.4 36% 97 30.06 0.0
14 16:15 SW 3 10.00 Partly Cloudy SCT070 96.8 62.6 32% 98 30.08 0.0
14 15:55 W 5 10.00 Fair CLR 96.8 62.6 32% 98 30.09 0.0
14 15:35 W 7 10.00 Fair CLR 96.8 60.8 30% 97 30.1 0.0
14 15:15 W 6 10.00 Fair CLR 96.8 62.6 32% 98 30.1 0.0
14 14:55 NW 3 10.00 Fair CLR 96.8 62.6 32% 98 30.11 0.0
14 14:35 SW 6 10.00 Fair CLR 96.8 62.6 32% 98 30.12 0.0
14 14:15 W 5 10.00 Fair CLR 95 66.2 39% 98 30.13 0.0
14 13:55 SW 3 10.00 Fair CLR 95 64.4 36% 97 30.13 0.0
14 13:35 W 7 10.00 Fair CLR 95 64.4 36% 97 30.14 0.0
14 12:55 Calm 10.00 Fair CLR 95 64.4 36% 97 30.15 0.0
14 12:35 SW 6 10.00 Fair CLR 95 64.4 36% 97 30.16 0.0
14 12:15 SW 5 10.00 Fair CLR 93.2 64.4 39% 95 30.16 0.0
14 11:55 W 3 10.00 Fair CLR 93.2 64.4 39% 95 30.16 0.0
14 11:15 Calm 10.00 Fair CLR 89.6 71.6 55% 96 30.16 0.0
14 10:55 S 3 10.00 Fair CLR 89.6 71.6 55% 96 30.17 0.0
14 10:35 Calm 10.00 Fair CLR 87.8 71.6 59% 94 30.17 0.0
14 10:15 S 3 10.00 Fair CLR 86 71.6 62% 92 30.18 0.0
Date Time (edt) Wind (mph) Vis. (mi.) Weather Sky Cond. Air Dwpt Max. Min. Relative Humidity Wind Chill (°F) Heat Index (°F) altimeter (in) sea level (mb) 1 hr 3 hr 6 hr
6 hour
Temperature (ºF) Pressure Precipitation (in)